[[{"header":{"parameterUnit":"m.s-1","parameterCategory":1,"la1":30.2991,"la2":30.254,"lo1":-89.0895,"lo2":-89.0444,"dy":0.0017,"dx":0.0017,"nx":28,"ny":28,"refTime":"2025-11-20T09:00:00:Z","depth":0,"parameterNumber":2,"parameterNumberName":"U-component_of_WINDS"},"data":[0,0,0,0,0,0,0,0,0,0,0,0,0,0,0,0,0,0,0,0,0,0,0,0,0,0,0,0,0,0,0,0,0,0,0,0,0,0,0,0,0,0,0,0,0,0,0,0,0,0,0,0,0,0,0,0,0,0,-3.1424,-3.1424,0,-3.1429,-3.1429,-3.1429,-3.1372,-3.1371,-3.1369,-3.1368,-3.1372,-3.1374,-3.1375,0,0,0,0,0,0,0,0,0,0,0,0,0,-3.1363,-3.1365,-3.1424,-3.1424,-3.1424,-3.1429,-3.1429,-3.1429,-3.1373,-3.1371,-3.1369,-3.1367,-3.1372,-3.1374,-3.1376,0,0,0,0,0,0,0,0,0,0,0,0,0,-3.1381,-3.1365,-3.1424,-3.1396,-3.1394,-3.1429,-3.1429,-3.1429,-3.1373,-3.1371,-3.1368,-3.1366,-3.1371,-3.1373,-3.1376,-3.1437,0,0,-3.1383,-3.1384,0,0,0,0,0,0,0,0,-3.138,-3.1384,-3.14,-3.1398,-3.1396,-3.1398,-3.141,-3.1432,-3.1374,-3.1381,-3.1368,-3.1365,-3.1383,-3.1384,-3.139,-3.1438,-3.1438,-3.1383,-3.1385,-3.1386,-3.1386,0,0,0,0,0,0,0,-3.1379,-3.1383,-3.1426,-3.1401,-3.1398,-3.1383,-3.1383,-3.1414,-3.1395,-3.138,-3.1376,-3.1378,-3.1381,-3.1388,-3.139,-3.1438,-3.1383,-3.1385,-3.1387,-3.1388,-3.1536,-3.1538,0,0,0,0,0,0,-3.1382,-3.1382,-3.1426,-3.1426,-3.1382,-3.1386,-3.1386,-3.1399,-3.1394,-3.1391,-3.138,-3.1375,-3.1385,-3.1387,-3.139,-3.146,-3.1386,-3.1388,-3.1389,-3.1533,-3.1536,-3.1539,0,0,0,0,0,0,-3.1381,-3.1386,-3.1425,-3.1403,-3.1407,-3.139,-3.1405,-3.1401,-3.1408,-3.1394,-3.139,-3.139,-3.1383,-3.1386,-3.1426,-3.146,-3.1389,-3.1391,-3.153,-3.1534,-3.1538,-3.1603,0,0,0,0,0,0,-3.1379,-3.1386,-3.1409,-3.1404,-3.1408,-3.1462,-3.1407,-3.1403,-3.1412,-3.1406,-3.1403,-3.14,-3.1382,-3.1423,-3.1428,-3.1462,-3.1393,-3.1527,-3.1532,-3.1536,-3.1598,-3.1608,-3.1618,0,0,0,0,0,-3.1377,-3.1427,-3.1411,-3.1416,-3.1437,-3.1464,-3.1466,-3.1444,-3.1415,-3.1438,-3.1429,-3.14,-3.1456,-3.1427,-3.1433,-3.1468,-3.1525,-3.1531,-3.1536,-3.1593,-3.1606,-3.1617,0,0,0,0,0,0,-3.1436,-3.1426,-3.1408,-3.1458,-3.1462,-3.1454,-3.1482,-3.1459,-3.1472,-3.1465,-3.1438,-3.1437,-3.1481,-3.1479,-3.1447,-3.1527,-3.1485,-3.1492,-3.1526,-3.1539,-3.1549,-3.1547,-3.1395,0,0,0,0,0,-3.1455,-3.1478,-3.1468,-3.1513,-3.1517,-3.15,-3.151,-3.1493,-3.1497,-3.1498,-3.1492,-3.1496,-3.1514,-3.1527,-3.1543,-3.1598,-3.1596,-3.1625,-3.1635,-3.1643,-3.1649,-3.1677,-3.1689,-3.1558,-3.1557,-3.1557,0,0,-3.1494,-3.1492,-3.1508,-3.1525,-3.1526,-3.155,-3.1501,-3.1529,-3.1546,-3.1502,-3.1538,-3.1535,-3.1538,-3.1585,-3.1605,-3.1584,-3.1685,-3.165,-3.1657,-3.1658,-3.1684,-3.1696,-3.1707,-3.1561,-3.1561,-3.156,0,0,-3.1577,-3.1578,-3.1615,-3.1618,-3.1621,-3.161,-3.1619,-3.1615,-3.1611,-3.1648,-3.1615,-3.1636,-3.1668,-3.1671,-3.1677,-3.1763,-3.1736,-3.1769,-3.1821,-3.1848,-3.1859,-3.1868,-3.1897,-3.1908,-3.1775,-3.1776,-3.1776,0,-3.1624,-3.1659,-3.1637,-3.1667,-3.1675,-3.1638,-3.1675,-3.1679,-3.1687,-3.1693,-3.167,-3.171,-3.1709,-3.1756,-3.1777,-3.1784,-3.1793,-3.1768,-3.1859,-3.1868,-3.1876,-3.1903,-3.1914,-3.1779,-3.1779,-3.1779,-3.1778,0,-3.1717,-3.1742,-3.1772,-3.1781,-3.1793,-3.1827,-3.1809,-3.1824,-3.1807,-3.1798,-3.1836,-3.1834,-3.1849,-3.1859,-3.1843,-3.1904,-3.1891,-3.1864,-3.1821,-3.1893,-3.1918,-3.1928,-3.1785,-3.1784,-3.1782,-3.1781,0,0,-3.1834,-3.1833,-3.1844,-3.1847,-3.1849,-3.1868,-3.19,-3.1915,-3.1927,-3.1935,-3.196,-3.199,-3.1965,-3.1972,-3.1955,-3.198,-3.2046,-3.195,-3.1949,-3.1966,-3.2113,-3.2131,-3.2144,-3.203,-3.2032,-3.2034,-3.2112,0,-3.1914,-3.1968,-3.1949,-3.2004,-3.2026,-3.1992,-3.202,-3.2024,-3.2017,-3.2035,-3.2027,-3.2048,-3.2014,-3.2018,-3.2041,-3.2033,-3.2075,-3.2028,-3.2052,-3.2053,-3.2049,-3.2157,-3.2177,-3.2251,-3.2122,-3.2124,-3.2125,0,-3.2012,-3.2024,-3.2082,-3.208,-3.2088,-3.2114,-3.2126,-3.2144,-3.2148,-3.2141,-3.215,-3.2128,-3.2159,-3.2119,-3.216,-3.2128,-3.2138,-3.2136,-3.2138,-3.2137,-3.2091,-3.2157,-3.2274,-3.2284,-3.214,-3.2139,-3.2138,0,-3.209,-3.2121,-3.2159,-3.2163,-3.2163,-3.2181,-3.2181,-3.2183,-3.2194,-3.2205,-3.2211,-3.2226,-3.2234,-3.2246,-3.2229,-3.2201,-3.2273,-3.2231,-3.2267,-3.2267,-3.2281,-3.2279,-3.2398,-3.2291,-3.2291,-3.2291,-3.2291,0,-3.2178,-3.2214,-3.2193,-3.2216,-3.2256,-3.2235,-3.2274,-3.2271,-3.2273,-3.2295,-3.2267,-3.2288,-3.2266,-3.2284,-3.2272,-3.2307,-3.2312,-3.2306,-3.2302,-3.2307,-3.2308,-3.2311,-3.2304,-3.2294,-3.2293,-3.2293,-3.2292,0,-3.227,-3.2258,-3.2296,-3.2293,-3.2294,-3.2322,-3.2319,-3.234,-3.2333,-3.236,-3.2366,-3.2353,-3.2374,-3.2359,-3.238,-3.2371,-3.2417,-3.2407,-3.2416,-3.2412,-3.2448,-3.2444,-3.2571,-3.2585,-3.2472,-3.2473,-3.2474,0,-3.2326,-3.2352,-3.2353,-3.2365,-3.2368,-3.2389,-3.24,-3.2381,-3.2393,-3.2401,-3.2421,-3.2439,-3.2453,-3.2488,-3.248,-3.2496,-3.2484,-3.2528,-3.2486,-3.249,-3.2482,-3.248,-3.2481,-3.2535,-3.2536,-3.2537,-3.2538,0,-3.2426,-3.2419,-3.2435,-3.2451,-3.2464,-3.2475,-3.2484,-3.2496,-3.2477,-3.2492,-3.2513,-3.2524,-3.2545,-3.2564,-3.2577,-3.2577,-3.2554,-3.2552,-3.2561,-3.2565,-3.2568,-3.2565,-3.2436,-3.2548,-3.2547,-3.2547,-3.2546,-3.2546,-3.2499,-3.2521,-3.2525,-3.2545,-3.255,-3.2559,-3.2578,-3.2573,-3.2591,-3.2607,-3.2595,-3.262,-3.2624,-3.2639,-3.2643,-3.2662,-3.2644,-3.2657,-3.266,-3.2663,-3.2667,-3.2568,-3.2664,-3.2664,-3.2664,-3.2664,-3.2663,0,-3.2596,-3.2597,-3.2616,-3.2629,-3.2644,-3.2624,-3.2632,-3.2646,-3.2669,-3.2675,-3.2689,-3.2713,-3.2732,-3.2726,-3.2742,-3.2759,-3.2749,-3.2763,-3.276,-3.2761,-3.2683,-3.2673,-3.2771,-3.2771,-3.2771,-3.2771,-3.2771,-3.2771,-3.2648,-3.2683,-3.2677,-3.2715,-3.2716,-3.2741,-3.2747,-3.2755,-3.276,-3.2788,-3.2804,-3.2801,-3.2802,-3.2818,-3.2834,-3.2832,-3.2838,-3.2856,-3.285,-3.2777,-3.2766,-3.2756,-3.2746,-3.2858,-3.2858,-3.2926,-3.2927,-3.2927]},{"header":{"parameterUnit":"m.s-1","parameterCategory":1,"la1":30.2991,"la2":30.254,"lo1":-89.0895,"lo2":-89.0444,"dy":0.0017,"dx":0.0017,"nx":28,"ny":28,"refTime":"2025-11-20T09:00:00:Z","depth":0,"parameterNumber":3,"parameterNumberName":"V-component_of_WINDS"},"data":[0,0,0,0,0,0,0,0,0,0,0,0,0,0,0,0,0,0,0,0,0,0,0,0,0,0,0,0,0,0,0,0,0,0,0,0,0,0,0,0,0,0,0,0,0,0,0,0,0,0,0,0,0,0,0,0,0,0,1.5294,1.5294,0,1.535,1.5351,1.5352,1.5356,1.5356,1.5355,1.5355,1.5411,1.5413,1.5415,0,0,0,0,0,0,0,0,0,0,0,0,0,1.519,1.5192,1.5294,1.5294,1.5295,1.535,1.5351,1.5352,1.5356,1.5356,1.5355,1.5354,1.541,1.5413,1.5415,0,0,0,0,0,0,0,0,0,0,0,0,0,1.524,1.5193,1.5293,1.5304,1.5306,1.535,1.5351,1.5352,1.5357,1.5356,1.5355,1.5354,1.541,1.5413,1.5416,1.5453,0,0,1.5425,1.5427,0,0,0,0,0,0,0,0,1.5237,1.5244,1.5302,1.5303,1.5305,1.5345,1.5335,1.5386,1.5357,1.5337,1.5355,1.5354,1.539,1.5395,1.5407,1.5456,1.5458,1.5425,1.5427,1.5429,1.543,0,0,0,0,0,0,0,1.5234,1.5241,1.5316,1.5303,1.5305,1.5306,1.5312,1.5345,1.5368,1.5339,1.5339,1.5346,1.5391,1.5404,1.5408,1.5459,1.5425,1.5428,1.543,1.5431,1.5544,1.5545,0,0,0,0,0,0,1.5228,1.5238,1.5314,1.5318,1.5268,1.5309,1.5316,1.5333,1.5368,1.5372,1.5347,1.5346,1.5399,1.5405,1.541,1.5459,1.5429,1.5432,1.5433,1.5543,1.5544,1.5546,0,0,0,0,0,0,1.5226,1.5235,1.5312,1.5278,1.5288,1.5312,1.5331,1.5335,1.5348,1.5374,1.5378,1.5356,1.5399,1.5406,1.5443,1.546,1.5433,1.5436,1.5542,1.5543,1.5545,1.5553,0,0,0,0,0,0,1.5223,1.5234,1.5248,1.5279,1.529,1.5343,1.5332,1.5337,1.5354,1.5354,1.5384,1.5388,1.5399,1.5439,1.5446,1.5464,1.5438,1.554,1.5542,1.5544,1.5552,1.5555,1.5558,0,0,0,0,0,1.5219,1.5247,1.5249,1.5258,1.5308,1.5344,1.5351,1.5363,1.5355,1.537,1.5387,1.5387,1.5457,1.5442,1.5451,1.547,1.5539,1.5542,1.5544,1.555,1.5555,1.5558,0,0,0,0,0,0,1.5217,1.5251,1.5253,1.5292,1.5315,1.5345,1.5364,1.5367,1.5393,1.5391,1.5405,1.5412,1.5449,1.5463,1.5446,1.551,1.5497,1.5502,1.5499,1.5503,1.5506,1.5503,1.5441,0,0,0,0,0,1.5221,1.5248,1.5276,1.5307,1.5319,1.534,1.5356,1.5364,1.5388,1.5398,1.5417,1.5441,1.5469,1.5487,1.5513,1.5554,1.5562,1.5572,1.5575,1.5577,1.5581,1.5606,1.5612,1.5554,1.5554,1.5554,0,0,1.5229,1.5251,1.5267,1.5308,1.5327,1.5355,1.5348,1.5377,1.5398,1.5402,1.5439,1.5454,1.5482,1.5522,1.554,1.5535,1.5599,1.5581,1.5583,1.5585,1.561,1.5615,1.562,1.5556,1.5555,1.5555,0,0,1.5259,1.5278,1.5307,1.5327,1.5357,1.5371,1.5378,1.5408,1.5419,1.5456,1.5461,1.5487,1.5533,1.5554,1.557,1.5612,1.5613,1.562,1.5637,1.5661,1.5666,1.567,1.5687,1.5692,1.5623,1.5624,1.5624,0,1.5265,1.5308,1.5322,1.5352,1.5371,1.5377,1.5408,1.5427,1.5463,1.5476,1.547,1.5531,1.555,1.5596,1.5606,1.5619,1.5628,1.5616,1.5664,1.5668,1.5673,1.5689,1.5695,1.5624,1.5624,1.5624,1.5624,0,1.5315,1.5345,1.5365,1.5403,1.5423,1.5453,1.5473,1.5492,1.5499,1.5514,1.5554,1.5577,1.561,1.5621,1.5627,1.5669,1.5665,1.5661,1.5649,1.5679,1.5694,1.57,1.5625,1.5625,1.5625,1.5625,0,0,1.5343,1.539,1.5398,1.5416,1.545,1.5474,1.5505,1.5539,1.5556,1.5582,1.561,1.5651,1.5649,1.5667,1.5676,1.5697,1.5732,1.5691,1.5692,1.5699,1.5781,1.5785,1.5792,1.5733,1.5734,1.5735,1.578,0,1.5378,1.5435,1.545,1.5499,1.5528,1.5536,1.5563,1.5588,1.5604,1.5631,1.5647,1.5677,1.5671,1.5683,1.5704,1.5723,1.5748,1.572,1.576,1.5761,1.5754,1.5799,1.5803,1.5844,1.5786,1.5787,1.5787,0,1.5426,1.5455,1.5507,1.5541,1.5554,1.5578,1.5612,1.5637,1.5666,1.5676,1.5699,1.5706,1.5741,1.5727,1.5776,1.5756,1.5773,1.5785,1.5787,1.5792,1.5776,1.5807,1.5857,1.5863,1.5797,1.5796,1.5795,0,1.5444,1.5496,1.5534,1.5549,1.5589,1.5607,1.5624,1.5652,1.5673,1.5702,1.5715,1.5748,1.5766,1.5791,1.5808,1.5796,1.5856,1.5843,1.5866,1.5866,1.5878,1.5877,1.5933,1.5888,1.5888,1.5887,1.5887,0,1.5482,1.5514,1.5543,1.5567,1.5603,1.5621,1.5657,1.5674,1.57,1.5728,1.5736,1.5763,1.5783,1.5812,1.5825,1.5865,1.5872,1.5882,1.5885,1.5882,1.5881,1.5894,1.5892,1.5889,1.5889,1.5888,1.5888,0,1.5508,1.5528,1.5571,1.5607,1.5617,1.5642,1.5673,1.5697,1.5713,1.5749,1.5758,1.5784,1.5819,1.5839,1.5882,1.5891,1.5936,1.5937,1.5926,1.5928,1.5951,1.5949,1.6018,1.6028,1.5974,1.5975,1.5975,0,1.5531,1.5556,1.5595,1.5615,1.5634,1.5665,1.5687,1.5705,1.5727,1.5764,1.5784,1.582,1.585,1.5906,1.5929,1.5963,1.5966,1.5988,1.5971,1.5968,1.5968,1.5967,1.5971,1.5991,1.5991,1.5991,1.5992,0,1.5571,1.5581,1.5612,1.5647,1.5673,1.5701,1.5729,1.5745,1.5769,1.5793,1.583,1.5854,1.59,1.5936,1.5972,1.5991,1.5996,1.5997,1.6005,1.6002,1.5995,1.6001,1.5936,1.5995,1.5995,1.5995,1.5994,1.5994,1.5598,1.5622,1.5654,1.5689,1.5712,1.5739,1.5764,1.5785,1.5817,1.5856,1.5865,1.5905,1.5936,1.5986,1.6005,1.6037,1.6033,1.6043,1.6046,1.6048,1.605,1.599,1.6043,1.6043,1.6043,1.6043,1.6043,0,1.564,1.5662,1.5694,1.5734,1.5762,1.5765,1.5798,1.5821,1.5856,1.5885,1.5915,1.5958,1.5994,1.6021,1.6058,1.6078,1.6082,1.6088,1.6087,1.6092,1.6051,1.6042,1.6084,1.6084,1.6084,1.6084,1.6084,1.6084,1.5665,1.5707,1.5721,1.5775,1.5796,1.5836,1.5854,1.588,1.5903,1.5952,1.5983,1.6,1.6029,1.6069,1.6103,1.611,1.6123,1.6129,1.6137,1.6098,1.6094,1.609,1.6081,1.6132,1.6132,1.6175,1.6176,1.6176]}]]